Location: *
(40.7873°S, 98.7174°E)
Time: 12:20:14
(UTC+00:00)

Kosmos-1816 - Pass Details

Date: 20 June 2024
Orbit: 959 x 1007 km, 82.9° (Epoch: 23 July)

Event Time Altitude Azimuth Distance (km) Brightness Sun altitude
Rises 11:44:44 0° 181° (S) 3,767 8.9 -18.3°
Reaches altitude 10° 11:47:29 10° 173° (S) 2,806 8.2 -18.8°
Maximum altitude 11:53:32 41° 104° (ESE) 1,428 6.4 -19.9°
Drops below altitude 10° 11:59:26 10° 35° (NE) 2,748 8.1 -21.0°
Sets 12:02:06 0° 28° (NNE) 3,681 8.9 -21.5°
